OPS 4682 DEB, 15340

Orbit data source: Space-Track

OPS 4682 DEB, 15340 is space debris in LEO originally from a launch on Sat, 03 Apr 1965 UTC launched from the Air Force Western Test Range (AFWTR). Debris objects in space refer to the collection of defunct objects orbiting the Earth. Examples of debris include non-operational satellites, rocket bodies, and fragments generated from explosions, collisions, or faulty payload assembly.

Loading next visibility...
Identifier
15340, 1965-027R
Orbit
LEO
Country
Flag of USUS
Related business
Manufacturer
Unknown
Mission
Spacecraft
Bus & Motor
Unknown
Mass
Unknown
Launch date (UTC)
1965-04-03 (61 years ago)
Launch vehicle
Unknown
Launch site
Air Force Western Test Range (AFWTR)
Object type
Payload
Rocket body
Debris
Shape & HBR
Unknown shape, 0.1 m
Radar Cross Section
Small (<0.1 m²)

Expand to show TLE details & history
Last TLE update: 12 hours ago

TLE from 12 hours ago
0 OPS 4682 DEB
1 15340U 65027R   26035.92389090  .00000272  00000-0  88848-3 0  9999
2 15340  90.2401   2.8042 0037133  16.6528  40.7720 12.99047941966357
Epoch: 2026-02-04T22:10Z
TLE epoch observation values (Epoch: 2026-02-04T22:10:24.173Z)
Latitude
57.79283°
Longitude
-105.25927°
Altitude
1,254.153 km
Speed
7.244 km/s
True Right ascension
00h 09m 41s
True Declination
57° 38' 51"
Sunlit
Object was in daylight at epoch
Visualization orbit readout
Latitude
Unknown
Longitude
Unknown
Altitude
Unknown
Speed
Unknown
Apparent Right ascension
Unknown
Apparent Declination
Unknown
Sunlit
N/A
Visualization observer readout
Local Sidereal Time
12:11:01
Azimuth
Unknown
Elevation
Unknown
Doppler factor
Unknown
Orbital elements
Apogee altitude
1,291.321 km
Perigee altitude
1,234.574 km
Semi-major axis
7,641.084 km
Eccentricity
0.00371
Inclination
90.2401°
RAAN
2.8042°
Arg. of periapsis
16.6528°
True anomaly
41.05086°
Mean anomaly
40.772°
Eccentric anomaly
40.91133°
Mean motion
3.24946 °/min
Orbital period
110.79 mins
BSTAR
0.00088848
Loading maneuver chart data...
Computing Atmospheric mass density...
Loading historical data...
Loading historical data...
Loading historical data...
Loading historical data...
Loading historical data...
Loading historical data...
Loading historical data...

Documentation

Showing up to 5 results
|